AirNav   Everest Fuels
 
 1335 users online  

53OI Metro Health Medical Center Heliport
Cleveland, Ohio, USA

GOING TO CLEVELAND?


FAA INFORMATION EFFECTIVE 19 MAY 2022

Location

FAA Identifier: 53OI
Lat/Long: 41-27-38.2807N 081-41-51.4721W
41-27.638012N 081-41.857868W
41.4606335,-81.6976311
(estimated)
Elevation: 735 ft. / 224 m (estimated)
Variation: 07W (1980)
From city: 2 miles S of CLEVELAND, OH
Time zone: UTC -4 (UTC -5 during Standard Time)
Zip code: 44109

Heliport Operations

Heliport use: Private use, MEDICAL USE.
Activation date: 11/1986
Control tower: no
ARTCC: CLEVELAND CENTER
FSS: CLEVELAND FLIGHT SERVICE STATION
Attendance: CONTINUOUS
Wind indicator: lighted
Segmented circle: no
Lights: SS-SR
Beacon: white-green-yellow (heliport)
Operates sunset to sunrise.

Heliport Communications

WX ASOS at BKL (3 nm N): PHONE 216-241-6904
WX ASOS at CLE (8 nm SW): PHONE 216-416-2729
WX AWOS-3 at CGF (11 nm NE): 119.950 (216-289-4113)
WX AWOS-3PT at LNN (19 nm NE): 119.225 (440-942-0809)
  • 123.025.

Nearby radio navigation aids

VOR radial/distance  VOR name  Freq  Var
DJBr079/21.8DRYER VOR/DME113.6005W
CXRr267/24.3CHARDON VOR/DME112.7005W
ACOr317/30.8AKRON VOR/DME114.4004W

 
NDB name  Hdg/Dist  Freq  Var  ID
LAKELAND235/19.526308WLQL .-.. --.- .-..

Heliport Services

Runway Information

Helipad H1

Dimensions: 50 x 175 ft. / 15 x 53 m
Surface: concrete
ROOFTOP. HELIPORT WITH ONE TAKE-OFF AND LANDING SPOT AND TWO PARKING SPOTS.
Weight bearing capacity: 
Single wheel: 14 AUW
Traffic pattern: leftleft

Heliport Ownership and Management from official FAA records

Ownership: Privately-owned
Owner: METRO HEALTH SYSTEMS
2500 METRO HEALTH DR.
CLEVELAND, OH 44109
Phone (216) 778-3090
Manager: BRIAN CARR
2500 METRO HEALTH DR.
CLEVELAND, OH 44109
Phone (800) 255-2229

Additional Remarks

FOR CD CTC CLEVELAND APCH AT 216-352-2323

Instrument Procedures

There are no published instrument procedures at 53OI.

Some nearby airports with instrument procedures:

KBKL - Burke Lakefront Airport (3 nm N)
KCLE - Cleveland-Hopkins International Airport (8 nm SW)
KCGF - Cuyahoga County Airport (11 nm NE)
KLNN - Lake County Executive Airport (19 nm NE)
1G1 - Elyria Airport (20 nm SW)
1G5 - Medina Municipal Airport (20 nm S)
 
Loc | Ops | Rwys | IFR | FBO | Links
Com | Nav | Svcs | Stats | Notes
Area around 53OI (Metro Health Medical Center Heliport)
 
Road maps at: MapQuest Bing Google
 
Aerial photo
No photo
 
Sectional chart

 
Airport distance calculator
Flying to Metro Health Medical Center Heliport? Find the distance to fly.

From to 53OI

Sunrise and sunset
Times for 26-May-2022
 Local
(UTC-4)
 Zulu
(UTC)
Morning civil twilight05:2709:27
Sunrise06:0010:00
Sunset20:4800:48
Evening civil twilight21:2101:21

Current date and time
Zulu (UTC)  26-May-2022 21:23:34
Local (UTC-4)  26-May-2022 17:23:34
 
METAR
KBKL 
5nm N 
262053Z 19014G23KT 10SM BKN035 25/17 A2986 RMK AO2 SLP107 60000 T02500172 56023
KCLE 
7nm W 
262051Z 19015G20KT 10SM BKN026 BKN035 24/17 A2987 RMK AO2 RAE00 SLP124 P0000 60000 T02390172 56021
KCGF 
12nm NE 
262045Z 19013G24KT 20SM - SCT028 BKN035 OVC120 23/18 A2989
KLNN 
19nm NE 
262055Z AUTO 22007G16KT 180V250 10SM BKN032 BKN041 24/16 A2988 RMK AO1 T02360162
TAF
KCLE 
7nm W 
261720Z 2618/2724 18015G25KT P6SM VCSH BKN035 TEMPO 2700/2704 2SM -TSRA BKN025CB FM270400 18012KT 3SM -SHRA BKN015 FM270800 19012KT P6SM BKN035 FM271800 22010KT P6SM VCTS BKN035CB
NOTAMs
Click for the latest NOTAMs
NOTAMs are issued by the DoD/FAA and will open in a separate window not controlled by AirNav.

 

 
 

Would you like to see your business listed on this page?

 If your business provides an interesting product or service to pilots, flight crews, aircraft, or users of the Metro Health Medical Center Heliport, you should consider listing it here.  To start the listing process, click on the button below
 
Add a business
 

Other Pages about Metro Health Medical Center Heliport

Update a link
 
Copyright © AirNav, LLC. All rights reserved. Privacy Policy  Contact